Renfrew, PA

4:40 AM EDT on August 24, 2016 (GMT -0400)
Butler County-Scholter

Weather History for KBTP - November, 2012

Change the Weather History Date:

Sunday, November 11, 2012

  Actual Average Record
Temperature  
Mean Temperature 55 °F -  
Max Temperature 68 °F 47 °F 71 °F (1975)
Min Temperature 42 °F 32 °F 22 °F (1993)
Degree Days  
Heating Degree Days 10    
Growing Degree Days 5 (Base 50)    
Moisture  
Dew Point 35 °F    
Average Humidity 41    
Maximum Humidity 66    
Minimum Humidity 30    
Precipitation  
Precipitation 0.00 in - - ()
Sea Level Pressure  
Sea Level Pressure 30.28 in    
Wind  
Wind Speed 6 mph (SSE)    
Max Wind Speed 10 mph    
Max Gust Speed 17 mph    
Visibility 10 miles    
Events      
Averages and records for this station are not official NWS values.
T = Trace of Precipitation, MM = Missing Value Source: NWS Daily Summary

Daily Weather History Graph

Daily Weather History Graph

Search for Another Location

Airport or City:

Trip Planner

Search our weather history database for the weather conditions in past years. The results will help you decide how hot, cold, wet, or windy it might be!

Date:

Astronomy

Nov. 11, 2012 Rise Set
Actual Time 7:02 AM EST 5:04 PM EST
Civil Twilight 6:33 AM EST 5:33 PM EST
Nautical Twilight 6:00 AM EST 6:06 PM EST
Astronomical Twilight 5:28 AM EST 6:39 PM EST
Moon 4:13 AM EST (11/11) 3:27 PM EST (11/11)
Length of Visible Light 11h 00m
Length of Day
10h 02m
Waning Crescent, 7% of the Moon is Illuminated
Nov 11
Waning Crescent
Nov 13
New
Nov 20
First Quarter
Nov 28
Full
Dec 6
Last Quarter

Hourly Weather History & Observations

Time (EST) Temp. Windchill Dew Point Humidity Pressure Visibility Wind Dir Wind Speed Gust Speed Precip Events Conditions
12:15 AM 53.6 °F - 33.8 °F 47% 30.26 in 10.0 mi South 4.6 mph - N/A   Clear
12:35 AM 53.6 °F - 33.8 °F 47% 30.26 in 10.0 mi South 5.8 mph - N/A   Clear
12:55 AM 53.6 °F - 33.8 °F 47% 30.26 in 10.0 mi South 6.9 mph - N/A   Clear
1:15 AM 53.6 °F - 33.8 °F 47% 30.25 in 10.0 mi South 5.8 mph - N/A   Clear
1:35 AM 53.6 °F - 33.8 °F 47% 30.26 in 10.0 mi South 4.6 mph - N/A   Clear
1:55 AM 53.6 °F - 32.0 °F 44% 30.26 in 10.0 mi South 5.8 mph - N/A   Clear
2:15 AM 53.6 °F - 33.8 °F 47% 30.26 in 10.0 mi South 4.6 mph - N/A   Clear
2:35 AM 53.6 °F - 33.8 °F 47% 30.26 in 10.0 mi SSE 5.8 mph - N/A   Clear
2:55 AM 53.6 °F - 33.8 °F 47% 30.26 in 10.0 mi South 4.6 mph - N/A   Clear
3:15 AM 51.8 °F - 33.8 °F 50% 30.26 in 10.0 mi South 4.6 mph - N/A   Clear
3:35 AM 51.8 °F - 33.8 °F 50% 30.27 in 10.0 mi South 4.6 mph - N/A   Clear
3:55 AM 53.6 °F - 33.8 °F 47% 30.27 in 10.0 mi SSE 3.5 mph - N/A   Clear
4:15 AM 51.8 °F - 32.0 °F 47% 30.28 in 10.0 mi SSE 3.5 mph - N/A   Clear
4:35 AM 51.8 °F - 32.0 °F 47% 30.29 in 10.0 mi Calm Calm - N/A   Clear
4:55 AM 51.8 °F - 33.8 °F 50% 30.29 in 10.0 mi Calm Calm - N/A   Clear
5:15 AM 50.0 °F - 33.8 °F 54% 30.30 in 10.0 mi South 4.6 mph - N/A   Clear
5:35 AM 51.8 °F - 33.8 °F 50% 30.30 in 10.0 mi South 4.6 mph - N/A   Clear
5:55 AM 51.8 °F - 33.8 °F 50% 30.31 in 10.0 mi South 3.5 mph - N/A   Clear
6:35 AM 42.8 °F 41.1 °F 32.0 °F 66% 30.32 in 10.0 mi SSE 3.5 mph - N/A   Clear
6:55 AM 46.4 °F 45.2 °F 33.8 °F 62% 30.33 in 10.0 mi South 3.5 mph - N/A   Clear
7:15 AM 48.2 °F - 33.8 °F 58% 30.34 in 10.0 mi South 5.8 mph - N/A   Clear
7:35 AM 51.8 °F - 33.8 °F 50% 30.35 in 10.0 mi South 6.9 mph - N/A   Clear
7:55 AM 53.6 °F - 33.8 °F 47% 30.36 in 10.0 mi South 5.8 mph - N/A   Clear
8:35 AM 55.4 °F - 35.6 °F 47% 30.38 in 10.0 mi SSW 9.2 mph - N/A   Clear
8:55 AM 57.2 °F - 35.6 °F 44% 30.37 in 10.0 mi South 9.2 mph - N/A   Clear
9:15 AM 59.0 °F - 35.6 °F 42% 30.38 in 10.0 mi SSW 8.1 mph - N/A   Clear
9:35 AM 60.8 °F - 37.4 °F 42% 30.38 in 10.0 mi South 8.1 mph - N/A   Clear
9:55 AM 60.8 °F - 35.6 °F 39% 30.37 in 10.0 mi South 6.9 mph - N/A   Clear
10:35 AM 64.4 °F - 37.4 °F 37% 30.37 in 10.0 mi SSW 9.2 mph - N/A   Clear
10:55 AM 64.4 °F - 37.4 °F 37% 30.36 in 10.0 mi SSW 8.1 mph 17.3 mph N/A   Clear
11:15 AM 66.2 °F - 37.4 °F 35% 30.36 in 10.0 mi SSW 6.9 mph - N/A   Clear
11:35 AM 66.2 °F - 37.4 °F 35% 30.35 in 10.0 mi SSW 9.2 mph - N/A   Clear
11:55 AM 66.2 °F - 37.4 °F 35% 30.34 in 10.0 mi SSW 10.4 mph - N/A   Clear
12:15 PM 66.2 °F - 37.4 °F 35% 30.32 in 10.0 mi SSW 6.9 mph - N/A   Clear
12:35 PM 66.2 °F - 37.4 °F 35% 30.31 in 10.0 mi South 8.1 mph - N/A   Clear
12:55 PM 66.2 °F - 37.4 °F 35% 30.31 in 10.0 mi South 6.9 mph - N/A   Clear
1:15 PM 66.2 °F - 37.4 °F 35% 30.29 in 10.0 mi SSE 9.2 mph - N/A   Clear
1:35 PM 66.2 °F - 37.4 °F 35% 30.29 in 10.0 mi South 9.2 mph - N/A   Clear
1:55 PM 66.2 °F - 37.4 °F 35% 30.28 in 10.0 mi South 9.2 mph 16.1 mph N/A   Clear
2:15 PM 68.0 °F - 37.4 °F 33% 30.27 in 10.0 mi South 9.2 mph - N/A   Clear
2:35 PM 68.0 °F - 35.6 °F 30% 30.27 in 10.0 mi South 9.2 mph - N/A   Clear
2:55 PM 66.2 °F - 35.6 °F 32% 30.28 in 10.0 mi South 4.6 mph - N/A   Clear
3:15 PM 66.2 °F - 37.4 °F 35% 30.27 in 10.0 mi SE 4.6 mph - N/A   Clear
3:35 PM 66.2 °F - 37.4 °F 35% 30.27 in 10.0 mi SE 6.9 mph - N/A   Clear
3:55 PM 66.2 °F - 35.6 °F 32% 30.27 in 10.0 mi SSE 6.9 mph - N/A   Clear
4:15 PM 64.4 °F - 35.6 °F 34% 30.27 in 10.0 mi SE 5.8 mph - N/A   Clear
4:35 PM 64.4 °F - 35.6 °F 34% 30.25 in 10.0 mi SE 5.8 mph - N/A   Clear
4:55 PM 64.4 °F - 33.8 °F 32% 30.25 in 10.0 mi SE 6.9 mph - N/A   Clear
5:15 PM 62.6 °F - 33.8 °F 34% 30.25 in 10.0 mi SE 5.8 mph - N/A   Clear
5:35 PM 60.8 °F - 33.8 °F 36% 30.25 in 10.0 mi ESE 5.8 mph - N/A   Clear
5:55 PM 60.8 °F - 33.8 °F 36% 30.26 in 10.0 mi ESE 4.6 mph - N/A   Clear
6:15 PM 60.8 °F - 33.8 °F 36% 30.27 in 10.0 mi SE 4.6 mph - N/A   Clear
6:35 PM 62.6 °F - 33.8 °F 34% 30.26 in 10.0 mi SE 3.5 mph - N/A   Clear
6:55 PM 60.8 °F - 33.8 °F 36% 30.26 in 10.0 mi SE 5.8 mph - N/A   Clear
7:15 PM 59.0 °F - 33.8 °F 39% 30.25 in 10.0 mi ESE 8.1 mph - N/A   Clear
7:35 PM 60.8 °F - 33.8 °F 36% 30.25 in 10.0 mi ESE 9.2 mph - N/A   Clear
7:55 PM 60.8 °F - 33.8 °F 36% 30.25 in 10.0 mi ESE 8.1 mph - N/A   Clear
8:15 PM 60.8 °F - 33.8 °F 36% 30.24 in 10.0 mi ESE 8.1 mph - N/A   Clear
8:35 PM 59.0 °F - 33.8 °F 39% 30.25 in 10.0 mi ESE 8.1 mph - N/A   Clear
8:55 PM 60.8 °F - 33.8 °F 36% 30.24 in 10.0 mi SE 6.9 mph - N/A   Clear
9:15 PM 60.8 °F - 33.8 °F 36% 30.25 in 10.0 mi SE 5.8 mph - N/A   Clear
9:35 PM 59.0 °F - 33.8 °F 39% 30.24 in 10.0 mi SE 8.1 mph - N/A   Clear
9:55 PM 59.0 °F - 33.8 °F 39% 30.24 in 10.0 mi SSE 8.1 mph - N/A   Clear
10:15 PM 59.0 °F - 33.8 °F 39% 30.23 in 10.0 mi SSE 5.8 mph - N/A   Clear
10:35 PM 59.0 °F - 33.8 °F 39% 30.24 in 10.0 mi SSE 6.9 mph - N/A   Clear
10:55 PM 59.0 °F - 33.8 °F 39% 30.23 in 10.0 mi SSE 5.8 mph - N/A   Clear
11:15 PM 59.0 °F - 33.8 °F 39% 30.23 in 10.0 mi SE 8.1 mph - N/A   Clear
11:35 PM 57.2 °F - 33.8 °F 41% 30.23 in 10.0 mi SSE 6.9 mph - N/A   Clear
11:55 PM 57.2 °F - 33.8 °F 41% 30.23 in 10.0 mi SSE 5.8 mph - N/A   Clear